Weather History for Cocoa Beach, FL

Change the Weather History Date:

Tuesday, March 11, 2014

  Actual Average Record
Temperature  
Mean Temperature 68 °F -  
Max Temperature 74 °F 73 °F 78 °F (2003)
Min Temperature 62 °F 60 °F 46 °F (1998)
Cooling Degree Days 2    
Growing Degree Days 18 (Base 50)    
Moisture  
Dew Point 60 °F    
Average Humidity 75    
Maximum Humidity 93    
Minimum Humidity 56    
Precipitation  
Precipitation 0.00 in - - ()
Sea Level Pressure  
Sea Level Pressure 29.94 in    
Wind  
Wind Speed 8 mph (South)    
Max Wind Speed 13 mph    
Max Gust Speed -    
Visibility 10 miles    
Events      
Averages and records for this station are not official NWS values.
T = Trace of Precipitation, MM = Missing Value Source: NWS Daily Summary

Daily Weather History Graph

Daily Weather History Graph

Search for Another Location

Airport:

Trip Planner

Search our weather history database for the weather conditions in past years. The results will help you decide how hot, cold, wet, or windy it might be!

Date:

Astronomy

Mar. 11, 2014 Rise Set
Actual Time 7:36 AM EDT 7:28 PM EDT
Civil Twilight 7:13 AM EDT 7:52 PM EDT
Nautical Twilight 6:45 AM EDT 8:19 PM EDT
Astronomical Twilight 6:18 AM EDT 8:46 PM EDT
Moon 3:20 PM EDT (3/11) 4:11 AM EDT (3/11)
Length of Visible Light 12h 39m
Length of Day
11h 52m
Waxing Gibbous, 78% of the Moon is Illuminated
Mar 11
Waxing Gibbous
Mar 16
Full
Mar 23
Last Quarter
Mar 30
New
Apr 7
First Quarter

Hourly Weather History & Observations

Time (EDT) Temp. Dew Point Humidity Pressure Visibility Wind Dir Wind Speed Gust Speed Precip Events Conditions
12:58 AM 64.8 °F 62.4 °F 92% 30.01 in 10.0 mi SW 4.6 mph - N/A   Clear
1:58 AM 64.2 °F 62.2 °F 93% 30.01 in 10.0 mi WSW 6.9 mph - N/A   Clear
2:58 AM 63.7 °F 59.5 °F 86% 29.99 in 10.0 mi West 9.2 mph - N/A   Clear
3:58 AM 63.1 °F 56.8 °F 80% 29.98 in 10.0 mi WNW 9.2 mph - N/A   Clear
4:58 AM 63.1 °F 55.8 °F 77% 29.96 in 10.0 mi WNW 8.1 mph - N/A   Clear
5:58 AM 62.6 °F 54.9 °F 76% 29.96 in 10.0 mi WNW 8.1 mph - N/A   Clear
6:58 AM 62.1 °F 55.9 °F 80% 29.99 in 10.0 mi WNW 8.1 mph - N/A   Clear
7:58 AM 62.2 °F 54.9 °F 77% 29.99 in 10.0 mi NNW 8.1 mph - N/A   Clear
8:58 AM 64.9 °F 56.1 °F 73% 30.00 in 10.0 mi NW 6.9 mph - N/A   Clear
9:58 AM 65.8 °F 57.0 °F 73% 30.01 in 10.0 mi NW 3.5 mph - N/A   Clear
10:58 AM 68.2 °F 56.3 °F 66% 29.99 in 10.0 mi Variable 3.5 mph - N/A   Clear
11:58 AM 70.0 °F 57.7 °F 65% 29.99 in 10.0 mi ESE 4.6 mph - N/A   Clear
12:58 PM 71.2 °F 56.1 °F 59% 29.96 in 10.0 mi ESE 6.9 mph - N/A   Clear
1:58 PM 72.0 °F 55.4 °F 56% 29.94 in 10.0 mi ESE 10.4 mph - N/A   Clear
2:58 PM 72.7 °F 56.7 °F 57% 29.91 in 10.0 mi SE 11.5 mph - N/A   Clear
3:58 PM 73.2 °F 57.6 °F 58% 29.88 in 10.0 mi SE 12.7 mph - N/A   Clear
4:58 PM 73.0 °F 58.3 °F 60% 29.88 in 10.0 mi SE 12.7 mph - N/A   Clear
5:58 PM 71.4 °F 60.6 °F 69% 29.88 in 10.0 mi SSE 12.7 mph - N/A   Clear
6:58 PM 70.9 °F 62.4 °F 75% 29.88 in 10.0 mi SE 11.5 mph - N/A   Clear
7:58 PM 69.4 °F 64.8 °F 85% 29.90 in 10.0 mi SE 11.5 mph - N/A   Clear
8:58 PM 70.0 °F 66.6 °F 89% 29.90 in 10.0 mi SSE 11.5 mph - N/A   Clear
9:58 PM 70.7 °F 67.5 °F 89% 29.90 in 10.0 mi SSE 12.7 mph - N/A   Clear
10:58 PM 70.5 °F 68.4 °F 93% 29.88 in 10.0 mi South 10.4 mph - N/A   Clear
11:58 PM 71.2 °F 65.5 °F 82% 29.88 in 10.0 mi SSW 12.7 mph - N/A   Clear